Regional Weather Roundup
Issued by NWS

Home | Current Version | Previous Version | Graphics & Text | Print | Product List | Glossary On
Versions: 1 2 3 4 5 6 7 8 9 10 11 12 13 14 15 16 17 18 19 20 21 22 23 24 25 26 27 28 29 30 31 32 33 34 35 36 37 38 39 40 41 42 43 44 45 46 47 48 49 50
000
ASUS45 KPSR 072110
RWRAZ

ARIZONA HOURLY REGIONAL WEATHER ROUNDUP
NATIONAL WEATHER SERVICE PHOENIX AZ
200 PM MST SUN FEB 07 2016

NOTE: FAIR INDICATES FEW OR NO CLOUDS BELOW 12,000 FEET WITH NO
SIGNIFICANT WEATHER AND/OR OBSTRUCTIONS TO VISIBILITY.

AZZ001>003-036-072200-
NORTHWEST ARIZONA

CITY           SKY/WX    TMP DP  RH WIND       PRES   REMARKS
BULLHEAD CITY  SUNNY     68  19  15 N36G43    30.22F
KINGMAN        SUNNY     64  22  20 N10       30.30F
$$

AZZ004>008-015-016-018-072200-
NORTH CENTRAL ARIZONA

CITY           SKY/WX    TMP DP  RH WIND       PRES   REMARKS
GRAND CANYON   SUNNY     48  13  24 E13G23    30.42F
WILLIAMS       SUNNY     52  16  24 E14       30.42F
PRESCOTT       SUNNY     62  19  19 VRB7      30.31F
FLAGSTAFF      SUNNY     45  13  27 E14G25    30.40F
PAYSON         SUNNY     63  18  17 NE14      30.30F
PAGE           SUNNY     43  22  43 N8        30.46F
$$

AZZ009>014-017-072200-
NORTHEAST ARIZONA

CITY           SKY/WX    TMP DP  RH WIND       PRES   REMARKS
WINSLOW        SUNNY     52  18  26 NW7       30.40F
SAINT JOHNS    SUNNY     52  16  24 VRB5      30.36F
WINDOW ROCK    SUNNY     53   0  11 N7        30.36F
SHOW LOW       SUNNY     46  16  29 NE13      30.39F
$$

AZZ023-072200-
GREATER PHOENIX AREA

CITY           SKY/WX    TMP DP  RH WIND       PRES   REMARKS
PHOENIX        MOSUNNY   75  17  11 NE5       30.12F
BUCKEYE        SUNNY     73  23  15 W3        30.16F
GLENDALE       MOSUNNY   73  19  13 CALM      30.15F
LUKE AFB       SUNNY     74  21  14 NW5       30.12F
DEER VALLEY    SUNNY     73  19  13 CALM      30.13F
SCOTTSDALE     SUNNY     73  17  12 CALM      30.15F
MESA-FALCON    MOSUNNY  N/A N/A N/A NE14      30.12F
MESA-GATEWAY   MOSUNNY   72  19  14 SW5       30.13F
CHANDLER       SUNNY     73  19  13 VRB5      30.13F
$$

AZZ027-028-072200-
SOUTHWEST MARICOPA COUNTY AND PINAL COUNTY

CITY           SKY/WX    TMP DP  RH WIND       PRES   REMARKS
CASA GRANDE    SUNNY     72  21  15 NW6       30.14F
GILA BEND      FAIR      73  21  14 N13       30.12F
$$

AZZ503-504-507>509-072200-
SOUTHEAST ARIZONA

CITY           SKY/WX    TMP DP  RH WIND       PRES   REMARKS
TUCSON         CLOUDY    71  11  10 N8        30.16F
DAVIS-MONTHAN  CLOUDY    69  15  12 N8        30.13F
RYAN FIELD     SUNNY     70  18  13 W8        30.16F
NOGALES        CLOUDY    71   8   8 SW3       30.16F
SIERRA VISTA   CLOUDY    65   1   7 SE6       30.23F
DOUGLAS        CLOUDY    65   6  10 VRB3      30.21F
SAFFORD        MOSUNNY   63  11  13 S5        30.21F
$$

AZZ020-021-025-026-031-072200-
SOUTHWEST ARIZONA

CITY           SKY/WX    TMP DP  RH WIND       PRES   REMARKS
YUMA           SUNNY     75  23  14 N15G23    30.15F
$$

CAZ031-033-041-043-047-048-061-072200-
SOUTHERN CALIFORNIA

CITY           SKY/WX    TMP DP  RH WIND       PRES   REMARKS
DOWNTOWN L.A.  SUNNY     83  24  11 CALM      30.09F
L.A. AIRPORT   SUNNY     82  17   9 W7        30.09F
SAN DIEGO      MOSUNNY   79  10   7 NW12      30.09F
BURBANK        SUNNY     80  23  12 VRB3      30.10F
ONTARIO        SUNNY     83  16   8 NE20G31   30.11F
RIVERSIDE      SUNNY     79  17  10 N18G31    30.14F
PALM SPRINGS   SUNNY     80  18  10 VRB7      30.20F
EL CENTRO NAS  SUNNY     80  17   9 N8        30.18F
IMPERIAL       SUNNY     79  21  11 N8        30.16F
BLYTHE         SUNNY     76  23  14 N17       30.18F
NEEDLES        SUNNY     73  20  13 NE32G45   30.21F
$$

NVZ020-UTZ003-072200-
SOUTHERN NEVADA-UTAH

CITY           SKY/WX    TMP DP  RH WIND       PRES   REMARKS
LAS VEGAS      SUNNY     64  19  17 VRB3      30.31F
SALT LAKE CITY MOSUNNY   39  25  57 W3        30.59F HAZE
$$

NMZ009-TXZ055-072200-
NEW MEXICO-WEST TEXAS

CITY           SKY/WX    TMP DP  RH WIND       PRES   REMARKS
ALBUQUERQUE    MOSUNNY   54  15  21 NW18G24   30.30F
EL PASO        PTSUNNY   61   9  12 VRB6      30.21F
$$


........................KEY........................
SKY/WX - SKY CONDITION/WEATHER
TMP    - TEMPERATURE IN FAHRENHEIT
DP     - DEW POINT IN FAHRENHEIT
RH     - RELATIVE HUMIDITY IN PERCENT
WIND   - DIRECTION AND SPEED IN MILES PER HOUR (MPH)
VRB    - VARIABLE WIND DIRECTION
PRES   - MEAN SEA LEVEL PRESSURE IN INCHES OF MERCURY
         F - FALLING PRESSURE   R - RISING PRESSURE
         S - STEADY PRESSURE
VSB    - VISIBILITY IN MILES
HX     - HEAT INDEX IN FAHRENHEIT
WCI    - WIND CHILL INDEX IN FAHRENHEIT
TC     - TEMPERATURE IN CELSIUS WHICH IS ALSO KNOWN AS
         TEMPERATURE IN CENTIGRADE
AFB    - AIR FORCE BASE
         LUKE AFB IS LUKE AIR FORCE BASE
         DAVIS-MONTHAN IS DAVIS-MONTHAN AIR FORCE BASE
NAS    - NAVAL AIR STATION
         EL CENTRO NAS IS EL CENTRO NAVAL AIR STATION
N/A    - NOT AVAILABLE




USA.gov is the U.S. government's official web portal to all federal, state and local government web resources and services.